Regional Weather Roundup
Issued by NWS

Home | Current Version | Previous Version | Text Only | Print | Product List | Glossary On
Versions: 1 2 3 4 5 6 7 8 9 10 11 12 13 14 15 16 17 18 19 20 21 22 23 24 25 26 27 28 29 30 31 32 33 34 35 36 37 38 39 40 41 42 43 44 45 46 47 48 49 50
000
ASUS45 KABQ 101110
RWRNM
NEW MEXICO REGIONAL WEATHER ROUNDUP
NATIONAL WEATHER SERVICE ALBUQUERQUE NM
400 AM MST SAT DEC 10 2016

NOTE: "FAIR" MEANS FEW OR NO CLOUDS BELOW 12,000 FEET AGL WITH NO
       SIGNIFICANT WEATHER OR OBSTRUCTIONS TO VISION.

      THIS PRODUCT IS RELEASED AS TWO VERSIONS.  ONE VERSION NEAR
      THE TOP OF THE HOUR CONTAINING PRELIMINARY DATA FROM ALBUQUERQUE
      AND OTHER STATIONS.  A FINAL VERSION WITH ADDITIONAL DATA IS
      ISSUED ABOUT 10 MINUTES AFTER THE HOUR.

NMZ501-503-504-510>518-101200-
NORTHWEST PLATEAU/NORTHCENTRAL MOUNTAINS

CITY           SKY/WX    TMP DP  RH WIND       PRES   REMARKS
FARMINGTON     FAIR      25  21  85 E7        30.22F WCI  17
LOS ALAMOS     FAIR      34  23  63 CALM      30.26F
SANTA FE       FAIR      22  19  89 NE7       30.24F WCI  13
TAOS           FAIR      19   9  63 N6        30.26S WCI  11
ANGEL FIRE     FAIR      29  23  77 SE6       30.23F WCI  23

$$
NMZ402-403-502-505>509-101200-
WESTCENTRAL MOUNTAINS/SOUTHWEST MOUNTAINS

CITY           SKY/WX    TMP DP  RH WIND       PRES   REMARKS
GALLUP         FAIR      19  16  88 E5        30.25F WCI  12
GRANTS         FAIR      20  18  91 NW7       30.28F WCI  11
SILVER CITY    FAIR      29  27  92 N8        30.26F WCI  21

$$
NMZ407-409-411-412-101200-
SOUTHERN DESERTS

CITY           SKY/WX    TMP DP  RH WIND       PRES   REMARKS
DEMING         FAIR      29  26  89 NW5       30.28S WCI  24
LAS CRUCES     FAIR      29  26  89 NW3       30.28S
HOLLOMAN AFB   FAIR      24  18  76 NW5       30.32F WCI  18
T OR C         FAIR      28  23  81 NW7       30.26F WCI  21

$$
NMZ519>523-101200-
CENTRAL VALLEYS/CENTRAL HIGHLANDS

CITY           SKY/WX    TMP DP  RH WIND       PRES   REMARKS
ALBUQUERQUE    FAIR      29  24  82 CALM      30.28F
DOUBLE EAGLE   FAIR      22  19  88 CALM      30.28S
MORIARTY ARPT  FAIR      16  10  79 CALM      30.27F
CLINES CORNERS FAIR      23  20  88 W6        30.25F WCI  16
BELEN          FAIR      25  21  85 NE6       30.29S WCI  18
SOCORRO        FAIR      29  26  88 S6        30.28S WCI  23

$$
NMZ524>526-539-540-101200-
SOUTHCENTRAL MOUNTAINS

CITY           SKY/WX    TMP DP  RH WIND       PRES   REMARKS
RUIDOSO        FAIR      37  19  48 NW5       30.26F WCI  34

$$
NMZ527>531-101200-
NORTHEAST HIGHLANDS/NORTHEAST PLAINS

CITY           SKY/WX    TMP DP  RH WIND       PRES   REMARKS
LAS VEGAS      FAIR      33  19  56 S14       30.17F WCI  23
RATON          FAIR      22  16  78 NE10      30.12F WCI  11
CLAYTON        FAIR      31  25  78 CALM      30.05F

$$
NMZ532>537-101200-
EASTCENTRAL PLAINS

CITY           SKY/WX    TMP DP  RH WIND       PRES   REMARKS
TUCUMCARI      FAIR      29  24  82 SW9       30.11F WCI  20
CANNON AFB     PTCLDY    25  25 100 W6        30.17S FOG     WCI  18
CLOVIS AIRPORT FAIR      27  21  80 SW10      30.16F WCI  17

$$
NMZ028-029-538-101200-
SOUTHEAST PLAINS

CITY           SKY/WX    TMP DP  RH WIND       PRES   REMARKS
ROSWELL        FOG       28  26  92 CALM      30.20F VSB 1/4
ARTESIA        FOG       27  27 100 SW7       30.21F VSB 1/2 WCI  19
CARLSBAD       NOT AVBL


$$



USA.gov is the U.S. government's official web portal to all federal, state and local government web resources and services.